Location: Chenereilles
(45.4866°N, 4.0790°E)
Time: 10:29:17
(UTC+00:00)

BREEZE-M DEB (TANK) - Pass Details

Date: 12 November 2019
Orbit: 426 x 13858 km, 45.9° (Epoch: 05 December)

Event Time Altitude Azimuth Distance (km) Brightness Sun altitude
Rises 18:08:14 0° 235° (SW) 4,796 8.1 -19.5°
Reaches altitude 10° 18:12:36 10° 230° (SW) 2,753 6.6 -20.3°
Maximum altitude 18:17:30 40° 160° (SSE) 813 3.0 -21.2°
Enters shadow 18:17:34 40° 157° (SSE) 809 2.9 -21.2°
